Location: Mohawk View
(42.7837°N, 73.7885°W)
Time: 08:20:44
(UTC+00:00)

BREEZE-M DEB (TANK) - Pass Details

Date: 17 June 2021
Orbit: 322 x 14771 km, 49.5° (Epoch: 27 July)

Event Time Altitude Azimuth Distance (km) Brightness Sun altitude
Rises 01:05:41 0° 216° (SW) 2,191 5.9 -5.2°
Reaches altitude 10° 01:07:39 10° 201° (SSW) 1,228 4.4 -5.5°
Maximum altitude 01:09:38 27° 137° (SE) 700 2.8 -5.8°
Drops below altitude 10° 01:12:14 10° 75° (ENE) 1,624 4.9 -6.2°
Sets 01:15:23 0° 63° (ENE) 3,202 6.5 -6.6°
